Location: Greenwich
(51.4790°N, 0.0090°E)
Time: 19:56:33
(UTC+01:00)

N. Korean satellite - Visible Passes

Search period start: 25 September 2021 00:00
Search period end: 05 October 2021 00:00
Orbit: 449 x 498 km, 97.3° (Epoch: 24 September)

Date Brightness Start Highest point End Pass type
(mag) Time Alt. Az. Time Alt. Az. Time Alt. Az.
25 Sep 7.9 06:04:46 10° NNE 06:08:11 44° E 06:11:38 10° S visible
26 Sep 9.3 05:37:23 10° NE 05:40:15 22° E 05:43:08 10° SSE visible
27 Sep 10.0 05:10:48 10° ENE 05:12:12 12° E 05:13:36 10° ESE visible
28 Sep 7.3 06:14:30 10° NNE 06:18:02 58° E 06:21:35 10° S visible
29 Sep 8.9 05:46:56 10° NE 05:50:06 28° E 05:53:16 10° SSE visible
30 Sep 9.8 05:19:53 10° NE 05:22:03 15° E 05:24:13 10° SE visible
01 Oct 6.8 06:24:09 10° NNE 06:27:45 76° ESE 06:31:23 10° S visible
02 Oct 8.3 05:56:28 10° NNE 05:59:49 36° E 06:03:12 10° SSE visible
03 Oct 9.6 05:29:08 10° NE 05:31:47 19° E 05:34:26 10° SE visible
